| time (UTC) | temp F | wind direction | speed MPH | gust MPH | rain 1hr in | rain 24hr in | rain mn in | humidity % | barometer mb |
| 20260503174718 | 65 | 225 | 0.0 | 0.0 | 0.00 | 0.00 | 0.01 | 100 | 1018.1 |
| 20260503174215 | 65 | 225 | 0.0 | 0.0 | 0.00 | 0.00 | 0.01 | 100 | 1018.1 |
| 20260503173713 | 65 | 225 | 0.0 | 0.0 | 0.00 | 0.00 | 0.01 | 100 | 1018.2 |
| 20260503173211 | 65 | 225 | 0.0 | 0.0 | 0.00 | 0.00 | 0.01 | 100 | 1018.3 |
| 20260503172709 | 65 | 225 | 0.0 | 0.0 | 0.00 | 0.00 | 0.01 | 100 | 1018.2 |
| 20260503172207 | 66 | 135 | 0.0 | 0.0 | 0.00 | 0.00 | 0.01 | 100 | 1018.1 |
| 20260503171704 | 66 | 90 | 0.0 | 0.0 | 0.00 | 0.00 | 0.00 | 100 | 1018.2 |
| 20260503171201 | 66 | 270 | 0.0 | 0.0 | 0.00 | 0.00 | 0.00 | 100 | 1018.3 |
| 20260503170659 | 66 | 315 | 0.0 | 0.0 | 0.00 | 0.00 | 0.00 | 100 | 1018.2 |
| 20260503170157 | 66 | 225 | 0.0 | 0.0 | 0.00 | 0.00 | 0.00 | 100 | 1018.3 |
| 20260503160130 | 67 | 45 | 0.0 | 0.0 | 0.00 | 0.00 | 0.00 | 100 | 1018.9 |
| 20260503150605 | 67 | 0 | 0.0 | 1.0 | 0.00 | 0.00 | 0.00 | 100 | 1019.2 |
| 20260503131012 | 69 | 0 | 4.0 | 4.0 | 0.00 | 0.00 | 0.00 | 100 | 1020.0 |
| 20260503130510 | 69 | 315 | 2.0 | 3.0 | 0.00 | 0.00 | 0.00 | 100 | 1019.9 |
| 20260503110412 | 69 | 315 | 1.0 | 2.0 | 0.00 | 0.00 | 0.00 | 97 | 1019.6 |
| 20260503090317 | 70 | 281 | 2.0 | 3.0 | 0.00 | 0.00 | 0.00 | 94 | 1018.8 |
| 20260503081257 | 71 | 303 | 3.0 | 3.0 | 0.00 | 0.00 | 0.00 | 90 | 1018.4 |
| 20260503080752 | 71 | 0 | 1.0 | 3.0 | 0.00 | 0.00 | 0.00 | 90 | 1018.4 |
| 20260503080249 | 71 | 315 | 2.0 | 4.0 | 0.00 | 0.00 | 0.00 | 90 | 1018.4 |
| 20260503072733 | 72 | 315 | 1.0 | 2.0 | 0.00 | 0.00 | 0.00 | 88 | 1018.0 |
| 20260503072231 | 72 | 315 | 1.0 | 1.0 | 0.00 | 0.00 | 0.00 | 88 | 1017.8 |
| 20260503071729 | 72 | 292 | 1.0 | 3.0 | 0.00 | 0.00 | 0.00 | 88 | 1017.8 |
| 20260503071226 | 72 | 315 | 1.0 | 2.0 | 0.00 | 0.00 | 0.00 | 88 | 1017.8 |
| 20260503070724 | 72 | 315 | 0.0 | 2.0 | 0.00 | 0.00 | 0.00 | 87 | 1017.7 |
| 20260503070221 | 72 | 315 | 1.0 | 4.0 | 0.00 | 0.00 | 0.00 | 88 | 1017.7 |
| 20260503060157 | 73 | 180 | 5.0 | 5.0 | 0.00 | 0.00 | 0.00 | 80 | 1017.2 |
| 20260503054648 | 73 | 157 | 3.0 | 8.0 | 0.00 | 0.00 | 0.00 | 81 | 1017.3 |
| 20260503054145 | 73 | 180 | 7.0 | 7.0 | 0.00 | 0.00 | 0.00 | 81 | 1017.3 |
| 20260503053643 | 73 | 180 | 6.0 | 6.0 | 0.00 | 0.00 | 0.00 | 81 | 1017.3 |
| 20260503053141 | 73 | 213 | 3.0 | 7.0 | 0.00 | 0.00 | 0.00 | 80 | 1017.3 |
| 20260503052638 | 74 | 180 | 5.0 | 7.0 | 0.00 | 0.00 | 0.00 | 80 | 1017.3 |
| 20260503052136 | 74 | 202 | 8.0 | 9.0 | 0.00 | 0.00 | 0.00 | 79 | 1017.3 |
| 20260503051633 | 74 | 180 | 8.0 | 9.0 | 0.00 | 0.00 | 0.00 | 76 | 1017.0 |
| 20260503051145 | 75 | 168 | 7.0 | 12.0 | 0.00 | 0.00 | 0.00 | 74 | 1017.0 |
| 20260503050629 | 76 | 157 | 10.0 | 10.0 | 0.00 | 0.00 | 0.00 | 71 | 1016.8 |
| 20260503050127 | 76 | 180 | 7.0 | 10.0 | 0.00 | 0.00 | 0.00 | 69 | 1016.8 |
| 20260503045122 | 77 | 135 | 5.0 | 11.0 | 0.00 | 0.00 | 0.00 | 65 | 1016.5 |
| 20260503044622 | 77 | 90 | 9.0 | 9.0 | 0.00 | 0.00 | 0.00 | 65 | 1016.4 |
| 20260503044118 | 77 | 112 | 8.0 | 11.0 | 0.00 | 0.00 | 0.00 | 65 | 1016.4 |
| 20260503043615 | 77 | 45 | 8.0 | 10.0 | 0.00 | 0.00 | 0.00 | 67 | 1016.6 |
| 20260503043113 | 77 | 90 | 3.0 | 7.0 | 0.00 | 0.00 | 0.00 | 67 | 1016.5 |
| 20260503042611 | 77 | 90 | 6.0 | 11.0 | 0.00 | 0.00 | 0.00 | 67 | 1016.6 |
| 20260503042108 | 77 | 135 | 8.0 | 13.0 | 0.00 | 0.00 | 0.00 | 66 | 1016.7 |
| 20260503041606 | 77 | 90 | 7.0 | 11.0 | 0.00 | 0.00 | 0.00 | 66 | 1016.6 |
| 20260503041104 | 77 | 67 | 3.0 | 8.0 | 0.00 | 0.00 | 0.00 | 66 | 1016.6 |
| 20260503040602 | 77 | 45 | 8.0 | 11.0 | 0.00 | 0.00 | 0.00 | 66 | 1016.7 |
| 20260503040100 | 77 | 90 | 7.0 | 10.0 | 0.00 | 0.00 | 0.00 | 66 | 1016.6 |
| 20260503035559 | 77 | 135 | 6.0 | 9.0 | 0.00 | 0.00 | 0.00 | 66 | 1016.8 |
| 20260503035055 | 77 | 90 | 7.0 | 12.0 | 0.00 | 0.00 | 0.00 | 65 | 1016.7 |
| 20260503034552 | 77 | 90 | 8.0 | 10.0 | 0.00 | 0.00 | 0.00 | 65 | 1016.7 |
| 20260503034050 | 77 | 90 | 11.0 | 13.0 | 0.00 | 0.00 | 0.00 | 65 | 1016.8 |
| 20260503033614 | 77 | 90 | 7.0 | 9.0 | 0.00 | 0.00 | 0.00 | 65 | 1016.8 |
| 20260503033045 | 77 | 90 | 9.0 | 11.0 | 0.00 | 0.00 | 0.00 | 65 | 1017.0 |
| 20260503032041 | 77 | 90 | 7.0 | 11.0 | 0.00 | 0.00 | 0.00 | 66 | 1017.1 |
| 20260503031539 | 77 | 112 | 7.0 | 13.0 | 0.00 | 0.00 | 0.00 | 66 | 1017.2 |
| 20260503031037 | 77 | 90 | 9.0 | 11.0 | 0.00 | 0.00 | 0.00 | 66 | 1017.2 |
| 20260503030534 | 77 | 135 | 9.0 | 10.0 | 0.00 | 0.00 | 0.00 | 67 | 1017.4 |
| 20260503030032 | 77 | 157 | 6.0 | 10.0 | 0.00 | 0.00 | 0.00 | 67 | 1017.4 |
| 20260503025529 | 77 | 90 | 9.0 | 14.0 | 0.00 | 0.00 | 0.00 | 66 | 1017.3 |
| 20260503025027 | 77 | 90 | 7.0 | 11.0 | 0.00 | 0.00 | 0.00 | 65 | 1017.4 |
| 20260503024525 | 77 | 112 | 6.0 | 11.0 | 0.00 | 0.00 | 0.00 | 66 | 1017.5 |
| 20260503024023 | 77 | 112 | 8.0 | 15.0 | 0.00 | 0.00 | 0.00 | 65 | 1017.5 |
| 20260503023522 | 76 | 135 | 5.0 | 11.0 | 0.00 | 0.00 | 0.00 | 68 | 1017.7 |
| 20260503023018 | 76 | 90 | 10.0 | 10.0 | 0.00 | 0.00 | 0.00 | 68 | 1017.9 |
| 20260503022516 | 76 | 90 | 9.0 | 12.0 | 0.00 | 0.00 | 0.00 | 68 | 1018.0 |
| 20260503022014 | 76 | 45 | 9.0 | 13.0 | 0.00 | 0.00 | 0.00 | 68 | 1018.0 |
| 20260503021512 | 76 | 112 | 8.0 | 12.0 | 0.00 | 0.00 | 0.00 | 68 | 1018.1 |
| 20260503021009 | 76 | 90 | 10.0 | 12.0 | 0.00 | 0.00 | 0.00 | 67 | 1018.2 |
| 20260503020506 | 76 | 90 | 11.0 | 13.0 | 0.00 | 0.00 | 0.00 | 69 | 1018.4 |
| 20260503020004 | 75 | 90 | 10.0 | 13.0 | 0.00 | 0.00 | 0.00 | 69 | 1018.5 |
| 20260503015502 | 75 | 90 | 7.0 | 16.0 | 0.00 | 0.00 | 0.00 | 69 | 1018.5 |
| 20260503015340 | 76 | 90 | 16.0 | 16.0 | 0.00 | 0.00 | 0.00 | 69 | 1018.5 |
| 20260503015058 | 76 | 90 | 7.0 | 11.0 | 0.00 | 0.00 | 0.00 | 68 | 1018.6 |
| 20260503014556 | 76 | 135 | 10.0 | 11.0 | 0.00 | 0.00 | 0.00 | 68 | 1018.5 |
| 20260503014053 | 76 | 90 | 5.0 | 11.0 | 0.00 | 0.00 | 0.00 | 68 | 1018.6 |
| 20260503013551 | 76 | 135 | 4.0 | 6.0 | 0.00 | 0.00 | 0.00 | 69 | 1018.7 |
| 20260503013049 | 76 | 112 | 5.0 | 12.0 | 0.00 | 0.00 | 0.00 | 68 | 1018.7 |
| 20260503012548 | 76 | 135 | 9.0 | 10.0 | 0.00 | 0.00 | 0.00 | 68 | 1018.7 |
| 20260503012044 | 76 | 101 | 10.0 | 12.0 | 0.00 | 0.00 | 0.00 | 68 | 1018.7 |
| 20260503011541 | 76 | 135 | 9.0 | 12.0 | 0.00 | 0.00 | 0.00 | 68 | 1018.7 |
| 20260503010537 | 76 | 90 | 7.0 | 11.0 | 0.00 | 0.00 | 0.00 | 69 | 1019.0 |
| 20260503010036 | 76 | 135 | 9.0 | 10.0 | 0.00 | 0.00 | 0.00 | 69 | 1019.1 |
| 20260503005533 | 75 | 90 | 11.0 | 11.0 | 0.00 | 0.00 | 0.00 | 69 | 1019.2 |
| 20260503005030 | 75 | 67 | 9.0 | 13.0 | 0.00 | 0.00 | 0.00 | 70 | 1019.2 |
| 20260503004528 | 75 | 90 | 9.0 | 12.0 | 0.00 | 0.00 | 0.00 | 69 | 1019.1 |
| 20260503004026 | 75 | 90 | 11.0 | 11.0 | 0.00 | 0.00 | 0.00 | 70 | 1019.3 |
| 20260503003523 | 75 | 90 | 6.0 | 11.0 | 0.00 | 0.00 | 0.00 | 72 | 1019.4 |
| 20260503003021 | 75 | 135 | 10.0 | 10.0 | 0.00 | 0.00 | 0.00 | 72 | 1019.4 |
| 20260503002518 | 74 | 90 | 11.0 | 11.0 | 0.00 | 0.00 | 0.00 | 73 | 1019.5 |
| 20260503002016 | 74 | 45 | 4.0 | 11.0 | 0.00 | 0.00 | 0.00 | 75 | 1019.6 |
| 20260503001514 | 74 | 112 | 7.0 | 12.0 | 0.00 | 0.00 | 0.00 | 74 | 1019.7 |
| 20260503001012 | 74 | 123 | 9.0 | 11.0 | 0.00 | 0.00 | 0.00 | 75 | 1019.7 |
| 20260503000510 | 74 | 45 | 8.0 | 12.0 | 0.00 | 0.00 | 0.00 | 75 | 1019.8 |
| 20260503000012 | 74 | 112 | 8.0 | 11.0 | 0.00 | 0.00 | 0.00 | 75 | 1019.7 |
| 20260502235505 | 73 | 90 | 10.0 | 17.0 | 0.00 | 0.00 | 0.00 | 76 | 1019.7 |
| 20260502235003 | 73 | 112 | 10.0 | 12.0 | 0.00 | 0.00 | 0.00 | 77 | 1019.8 |
| 20260502234500 | 73 | 135 | 10.0 | 11.0 | 0.00 | 0.00 | 0.00 | 77 | 1019.8 |
| 20260502233958 | 73 | 135 | 8.0 | 16.0 | 0.00 | 0.00 | 0.00 | 76 | 1019.8 |
| 20260502233746 | 73 | 135 | 16.0 | 16.0 | 0.00 | 0.00 | 0.00 | 76 | 1019.7 |
| 20260502233243 | 73 | 135 | 5.0 | 13.0 | 0.00 | 0.00 | 0.00 | 76 | 1019.7 |
| 20260502232841 | 73 | 135 | 13.0 | 13.0 | 0.00 | 0.00 | 0.00 | 77 | 1019.7 |
| 20260502232339 | 73 | 135 | 7.0 | 10.0 | 0.00 | 0.00 | 0.00 | 79 | 1019.7 |
| 20260502231837 | 72 | 90 | 8.0 | 15.0 | 0.00 | 0.00 | 0.00 | 79 | 1019.8 |
| 20260502231335 | 72 | 135 | 10.0 | 13.0 | 0.00 | 0.00 | 0.00 | 82 | 1019.9 |
| 20260502230833 | 71 | 135 | 10.0 | 12.0 | 0.00 | 0.00 | 0.00 | 83 | 1019.9 |
| 20260502230330 | 71 | 135 | 7.0 | 12.0 | 0.00 | 0.00 | 0.00 | 83 | 1020.0 |
| 20260502225828 | 71 | 135 | 8.0 | 12.0 | 0.00 | 0.00 | 0.00 | 83 | 1020.0 |
| 20260502225325 | 71 | 135 | 7.0 | 14.0 | 0.00 | 0.00 | 0.00 | 84 | 1020.0 |
| 20260502224823 | 70 | 135 | 14.0 | 15.0 | 0.00 | 0.00 | 0.00 | 84 | 1020.0 |
| 20260502224321 | 70 | 135 | 9.0 | 14.0 | 0.00 | 0.00 | 0.00 | 85 | 1019.9 |
| 20260502223819 | 70 | 135 | 15.0 | 15.0 | 0.00 | 0.00 | 0.00 | 85 | 1019.9 |
| 20260502223316 | 70 | 135 | 9.0 | 13.0 | 0.00 | 0.00 | 0.00 | 86 | 1019.9 |
| 20260502222814 | 70 | 135 | 9.0 | 12.0 | 0.00 | 0.00 | 0.00 | 87 | 1020.0 |
| 20260502222317 | 69 | 135 | 12.0 | 15.0 | 0.00 | 0.00 | 0.00 | 87 | 1019.9 |
| 20260502221810 | 69 | 135 | 9.0 | 14.0 | 0.00 | 0.00 | 0.00 | 88 | 1019.9 |
| 20260502221310 | 69 | 123 | 12.0 | 14.0 | 0.00 | 0.00 | 0.00 | 89 | 1019.8 |
| 20260502220805 | 69 | 135 | 14.0 | 16.0 | 0.00 | 0.00 | 0.00 | 90 | 1019.7 |
| 20260502220302 | 68 | 157 | 10.0 | 12.0 | 0.00 | 0.00 | 0.00 | 91 | 1019.8 |
| 20260502215800 | 68 | 135 | 10.0 | 13.0 | 0.00 | 0.00 | 0.00 | 91 | 1019.8 |
| 20260502215258 | 68 | 135 | 9.0 | 12.0 | 0.00 | 0.00 | 0.00 | 92 | 1019.8 |
| 20260502214758 | 68 | 135 | 9.0 | 11.0 | 0.00 | 0.00 | 0.00 | 93 | 1019.9 |
| 20260502214253 | 68 | 157 | 9.0 | 11.0 | 0.00 | 0.00 | 0.00 | 93 | 1019.8 |
| 20260502213751 | 68 | 135 | 10.0 | 11.0 | 0.00 | 0.00 | 0.00 | 93 | 1019.8 |
| 20260502213454 | 68 | 135 | 9.0 | 11.0 | 0.00 | 0.00 | 0.00 | 93 | 1019.8 |
| 20260502212952 | 67 | 135 | 7.0 | 9.0 | 0.00 | 0.00 | 0.00 | 93 | 1019.7 |
| 20260502212449 | 67 | 135 | 4.0 | 8.0 | 0.00 | 0.00 | 0.00 | 93 | 1019.5 |
| 20260502211947 | 67 | 135 | 10.0 | 13.0 | 0.00 | 0.00 | 0.00 | 94 | 1019.6 |
| 20260502211444 | 67 | 135 | 9.0 | 12.0 | 0.00 | 0.00 | 0.00 | 94 | 1019.7 |
| 20260502210942 | 67 | 123 | 11.0 | 11.0 | 0.00 | 0.00 | 0.00 | 94 | 1019.5 |
| 20260502210440 | 67 | 135 | 7.0 | 12.0 | 0.00 | 0.00 | 0.00 | 94 | 1019.6 |
| 20260502205938 | 67 | 157 | 9.0 | 11.0 | 0.00 | 0.00 | 0.00 | 94 | 1019.4 |
| 20260502204935 | 67 | 135 | 10.0 | 13.0 | 0.00 | 0.00 | 0.00 | 94 | 1019.5 |
| 20260502204431 | 67 | 146 | 11.0 | 13.0 | 0.00 | 0.00 | 0.00 | 94 | 1019.5 |
| 20260502203929 | 67 | 157 | 7.0 | 10.0 | 0.00 | 0.00 | 0.00 | 93 | 1019.5 |
| 20260502203426 | 67 | 135 | 8.0 | 10.0 | 0.00 | 0.00 | 0.00 | 94 | 1019.4 |
| 20260502202924 | 67 | 135 | 7.0 | 9.0 | 0.00 | 0.00 | 0.00 | 93 | 1019.3 |
| 20260502202421 | 67 | 135 | 7.0 | 10.0 | 0.00 | 0.00 | 0.00 | 92 | 1019.3 |
| 20260502201919 | 68 | 135 | 7.0 | 9.0 | 0.00 | 0.00 | 0.00 | 91 | 1019.2 |
| 20260502201417 | 68 | 180 | 5.0 | 8.0 | 0.00 | 0.00 | 0.00 | 91 | 1019.2 |
| 20260502200915 | 68 | 135 | 5.0 | 9.0 | 0.00 | 0.00 | 0.00 | 89 | 1019.2 |
| 20260502200413 | 68 | 135 | 8.0 | 9.0 | 0.00 | 0.00 | 0.00 | 89 | 1019.0 |
| 20260502195911 | 68 | 135 | 7.0 | 9.0 | 0.00 | 0.00 | 0.00 | 88 | 1018.9 |
| 20260502195408 | 68 | 135 | 7.0 | 9.0 | 0.00 | 0.00 | 0.00 | 89 | 1018.9 |
| 20260502194906 | 68 | 135 | 8.0 | 10.0 | 0.00 | 0.00 | 0.00 | 88 | 1018.8 |
| 20260502194403 | 68 | 135 | 5.0 | 11.0 | 0.00 | 0.00 | 0.00 | 88 | 1018.8 |
| 20260502193901 | 68 | 135 | 10.0 | 10.0 | 0.00 | 0.00 | 0.00 | 88 | 1018.7 |
| 20260502193359 | 68 | 135 | 6.0 | 9.0 | 0.00 | 0.00 | 0.00 | 88 | 1018.7 |
| 20260502192856 | 68 | 135 | 7.0 | 12.0 | 0.00 | 0.00 | 0.00 | 88 | 1018.6 |
| 20260502192354 | 68 | 135 | 6.0 | 9.0 | 0.00 | 0.00 | 0.00 | 87 | 1018.5 |
| 20260502191852 | 68 | 135 | 7.0 | 8.0 | 0.00 | 0.00 | 0.00 | 88 | 1018.5 |
| 20260502191351 | 68 | 135 | 8.0 | 9.0 | 0.00 | 0.00 | 0.00 | 88 | 1018.6 |
| 20260502190345 | 68 | 135 | 6.0 | 8.0 | 0.00 | 0.00 | 0.00 | 88 | 1018.5 |
| 20260502185843 | 68 | 135 | 9.0 | 12.0 | 0.00 | 0.00 | 0.00 | 88 | 1018.5 |
| 20260502185341 | 68 | 135 | 6.0 | 7.0 | 0.00 | 0.00 | 0.00 | 88 | 1018.5 |
| 20260502184838 | 68 | 135 | 6.0 | 9.0 | 0.00 | 0.00 | 0.00 | 88 | 1018.6 |
| 20260502184336 | 68 | 135 | 6.0 | 9.0 | 0.00 | 0.00 | 0.00 | 88 | 1018.5 |
| 20260502183833 | 68 | 157 | 6.0 | 9.0 | 0.00 | 0.00 | 0.00 | 88 | 1018.5 |
| 20260502183331 | 68 | 135 | 5.0 | 8.0 | 0.00 | 0.00 | 0.00 | 88 | 1018.5 |
| 20260502182829 | 68 | 135 | 5.0 | 8.0 | 0.00 | 0.00 | 0.00 | 88 | 1018.6 |
| 20260502182327 | 68 | 135 | 6.0 | 7.0 | 0.00 | 0.00 | 0.00 | 86 | 1018.5 |
| 20260502181825 | 67 | 135 | 4.0 | 5.0 | 0.00 | 0.00 | 0.00 | 86 | 1018.6 |
| 20260502181323 | 67 | 135 | 5.0 | 6.0 | 0.00 | 0.00 | 0.00 | 86 | 1018.5 |
| 20260502180820 | 67 | 135 | 3.0 | 5.0 | 0.00 | 0.00 | 0.00 | 85 | 1018.5 |
| 20260502180318 | 67 | 135 | 3.0 | 4.0 | 0.00 | 0.00 | 0.00 | 85 | 1018.4 |